TimeEDT,TemperatureF,Dew PointF,Humidity,Sea Level PressureIn,VisibilityMPH,Wind Direction,Wind SpeedMPH,Gust SpeedMPH,PrecipitationIn,Events,Conditions,WindDirDegrees,DateUTC
12:54 AM,54.0,53.1,97,29.98,10.0,Calm,Calm,-,N/A,,Clear,0,2013-04-30 04:54:00
1:54 AM,54.0,52.0,93,29.98,10.0,Calm,Calm,-,N/A,,Clear,0,2013-04-30 05:54:00
2:12 AM,51.8,51.8,100,30.02,2.5,Calm,Calm,-,N/A,,Partly Cloudy,0,2013-04-30 06:12:00
2:23 AM,51.8,51.8,100,30.02,4.0,Calm,Calm,-,N/A,,Scattered Clouds,0,2013-04-30 06:23:00
2:46 AM,51.8,51.8,100,30.02,1.5,Calm,Calm,-,N/A,,Mostly Cloudy,0,2013-04-30 06:46:00
2:54 AM,52.0,51.1,97,29.98,1.2,Calm,Calm,-,N/A,,Mostly Cloudy,0,2013-04-30 06:54:00
2:58 AM,51.8,51.8,100,30.02,2.0,Calm,Calm,-,N/A,,Mostly Cloudy,0,2013-04-30 06:58:00
3:00 AM,51.8,51.8,100,30.02,1.2,Calm,Calm,-,N/A,,Mostly Cloudy,0,2013-04-30 07:00:00
3:09 AM,51.8,51.8,100,30.02,0.5,Calm,Calm,-,N/A,Fog,Fog,0,2013-04-30 07:09:00
3:19 AM,51.8,51.8,100,30.03,0.2,Calm,Calm,-,N/A,Fog,Fog,0,2013-04-30 07:19:00
3:43 AM,51.8,51.8,100,30.03,0.2,Calm,Calm,-,N/A,Fog,Fog,0,2013-04-30 07:43:00
3:54 AM,51.1,51.1,100,30.00,0.2,Calm,Calm,-,N/A,Fog,Fog,0,2013-04-30 07:54:00
3:59 AM,50.0,50.0,100,30.04,0.5,Calm,Calm,-,N/A,Fog,Fog,0,2013-04-30 07:59:00
4:29 AM,50.0,50.0,100,30.05,1.0,Calm,Calm,-,N/A,,Mist,0,2013-04-30 08:29:00
4:36 AM,50.0,48.2,94,30.05,2.0,Calm,Calm,-,N/A,,Overcast,0,2013-04-30 08:36:00
4:41 AM,50.0,48.2,94,30.05,1.5,Calm,Calm,-,N/A,,Overcast,0,2013-04-30 08:41:00
4:45 AM,50.0,50.0,100,30.05,0.8,Calm,Calm,-,N/A,,Mist,0,2013-04-30 08:45:00
4:54 AM,50.0,48.9,96,30.02,0.5,Calm,Calm,-,N/A,Fog,Fog,0,2013-04-30 08:54:00
5:09 AM,50.0,48.2,94,30.06,0.2,Calm,Calm,-,N/A,Fog,Fog,0,2013-04-30 09:09:00
5:50 AM,48.2,48.2,100,30.06,0.2,Calm,Calm,-,N/A,Fog,Fog,0,2013-04-30 09:50:00
5:54 AM,48.9,48.0,97,30.03,0.2,Calm,Calm,-,N/A,Fog,Fog,0,2013-04-30 09:54:00
5:57 AM,48.2,48.2,100,30.07,0.5,Calm,Calm,-,N/A,Fog,Fog,0,2013-04-30 09:57:00
6:07 AM,48.2,48.2,100,30.07,1.0,Calm,Calm,-,N/A,,Overcast,0,2013-04-30 10:07:00
6:12 AM,48.2,48.2,100,30.07,2.5,Calm,Calm,-,N/A,,Overcast,0,2013-04-30 10:12:00
6:19 AM,48.2,48.2,100,30.07,9.0,Calm,Calm,-,N/A,,Overcast,0,2013-04-30 10:19:00
6:30 AM,48.2,48.2,100,30.07,2.5,Calm,Calm,-,N/A,,Overcast,0,2013-04-30 10:30:00
6:42 AM,48.2,48.2,100,30.08,2.5,Calm,Calm,-,N/A,,Overcast,0,2013-04-30 10:42:00
6:54 AM,48.9,48.9,100,30.05,0.2,Calm,Calm,-,N/A,Fog,Fog,0,2013-04-30 10:54:00
7:04 AM,48.2,48.2,100,30.09,0.8,South,3.5,-,N/A,,Overcast,180,2013-04-30 11:04:00
7:06 AM,48.2,48.2,100,30.09,1.5,South,3.5,-,N/A,,Overcast,170,2013-04-30 11:06:00
7:09 AM,48.2,48.2,100,30.09,3.0,Calm,Calm,-,N/A,,Overcast,0,2013-04-30 11:09:00
7:54 AM,50.0,50.0,100,30.08,10.0,Calm,Calm,-,N/A,,Overcast,0,2013-04-30 11:54:00
8:47 AM,51.8,51.8,100,30.12,1.5,South,3.5,-,N/A,,Overcast,170,2013-04-30 12:47:00
8:50 AM,51.8,51.8,100,30.13,0.8,Calm,Calm,-,N/A,,Overcast,0,2013-04-30 12:50:00
8:54 AM,51.1,51.1,100,30.09,0.5,Calm,Calm,-,N/A,Fog,Fog,0,2013-04-30 12:54:00
9:13 AM,53.6,53.6,100,30.13,0.2,Calm,Calm,-,N/A,Fog,Fog,0,2013-04-30 13:13:00
9:54 AM,54.0,54.0,100,30.09,0.5,Calm,Calm,-,N/A,Fog,Fog,0,2013-04-30 13:54:00
10:03 AM,55.4,55.4,100,30.13,1.5,Calm,Calm,-,N/A,,Overcast,0,2013-04-30 14:03:00
10:07 AM,55.4,55.4,100,30.13,3.0,SW,3.5,-,N/A,,Overcast,220,2013-04-30 14:07:00
10:41 AM,60.8,57.2,88,30.13,10.0,SSE,4.6,-,N/A,,Scattered Clouds,160,2013-04-30 14:41:00
10:54 AM,62.1,57.0,84,30.08,10.0,SSE,4.6,-,N/A,,Scattered Clouds,160,2013-04-30 14:54:00
11:54 AM,66.9,55.0,66,30.07,10.0,Variable,4.6,-,N/A,,Clear,0,2013-04-30 15:54:00
12:54 PM,69.1,50.0,51,30.06,10.0,South,6.9,-,0.01,,Partly Cloudy,170,2013-04-30 16:54:00
1:54 PM,71.1,51.1,49,30.04,10.0,Variable,5.8,-,N/A,,Partly Cloudy,0,2013-04-30 17:54:00
2:54 PM,72.0,52.0,49,30.03,10.0,Variable,5.8,-,N/A,,Partly Cloudy,0,2013-04-30 18:54:00
3:54 PM,70.0,51.1,51,30.03,10.0,ESE,6.9,-,N/A,,Clear,110,2013-04-30 19:54:00
4:54 PM,70.0,54.0,57,30.05,10.0,Variable,6.9,17.3,N/A,,Mostly Cloudy,0,2013-04-30 20:54:00
5:54 PM,71.1,52.0,51,30.06,10.0,South,10.4,-,N/A,,Partly Cloudy,170,2013-04-30 21:54:00
6:54 PM,69.1,52.0,54,30.08,10.0,SE,6.9,-,N/A,,Mostly Cloudy,130,2013-04-30 22:54:00
7:54 PM,66.0,54.0,65,30.10,10.0,Variable,5.8,-,N/A,,Mostly Cloudy,0,2013-04-30 23:54:00
8:54 PM,64.0,54.0,70,30.12,10.0,Calm,Calm,-,N/A,,Clear,0,2013-05-01 00:54:00
9:54 PM,62.6,53.6,72,30.18,10.0,SE,3.5,-,N/A,,Clear,130,2013-05-01 01:54:00
10:54 PM,59.0,54.0,83,30.15,10.0,Calm,Calm,-,N/A,,Mostly Cloudy,0,2013-05-01 02:54:00
11:54 PM,57.2,53.6,88,30.21,10.0,SW,3.5,-,N/A,,Partly Cloudy,220,2013-05-01 03:54:00